Mitchell, SD

10:21 PM CDT on September 18, 2019 (GMT -0500)
Mitchell Municipal

Weather History for KMHE - July, 2019

Change the Weather History Date:

Saturday, July 13, 2019

  Actual Average Record
Temperature  
Mean Temperature 83 °F 75 °F  
Max Temperature 94 °F 87 °F 106 °F (1954)
Min Temperature 72 °F 63 °F 40 °F (1900)
Degree Days  
Heating Degree Days 0 0  
Month to date heating degree days 0 0  
Since 1 June heating degree days 16 35  
Since 1 July heating degree days 0 0  
Cooling Degree Days 18 10  
Month to date cooling degree days 155 128  
Year to date cooling degree days 366 338  
Since 1 June cooling degree days 347 298  
Growing Degree Days 32 (Base 50)    
Moisture  
Dew Point 68 °F    
Average Humidity 67    
Maximum Humidity 93    
Minimum Humidity 41    
Precipitation  
Precipitation T in 0.09 in 1.50 in (1904)
Month to date precipitation 2.91 1.42  
Year to date precipitation 17.37 12.28  
Snow  
Snow 0.00 in - 0.00 in ()
Month to date snowfall 0.0  
Since 1 June snowfall 0.0  
Since 1 July snowfall 0.0  
Snow Depth 0.00 in    
Sea Level Pressure  
Sea Level Pressure 29.93 in    
Wind  
Wind Speed 8 mph (SE)    
Max Wind Speed 23 mph    
Max Gust Speed 33 mph    
Visibility 9 miles    
Events Thunderstorm    
T = Trace of Precipitation, MM = Missing Value Source: NWS Daily Summary

Daily Weather History Graph

Daily Weather History Graph

Search for Another Location

Airport or City:

Astronomy

Jul. 13, 2019 Rise Set
Actual Time 6:02 AM CDT 9:13 PM CDT
Civil Twilight 5:27 AM CDT 9:48 PM CDT
Nautical Twilight 4:42 AM CDT 10:33 PM CDT
Astronomical Twilight 3:47 AM CDT 11:27 PM CDT
Moon 6:36 PM CDT (7/13) 3:25 AM CDT (7/13)
Length of Visible Light 16h 20m
Length of Day
15h 10m
Waxing Gibbous, 90% of the Moon is Illuminated
Jul 13
Waxing Gibbous
Jul 16
Full
Jul 24
Last Quarter
Jul 31
New
Aug 7
First Quarter

Hourly Weather History & Observations

Time (CDT) Temp. Heat Index Dew Point Humidity Pressure Visibility Wind Dir Wind Speed Gust Speed Precip Events Conditions
12:53 AM 73.0 °F - 70.0 °F 90% 29.91 in 10.0 mi East 3.5 mph - N/A   Clear
1:53 AM 73.0 °F - 70.0 °F 90% 29.91 in 10.0 mi East 4.6 mph - N/A   Clear
2:53 AM 72.0 °F - 69.1 °F 91% 29.91 in 9.0 mi East 3.5 mph - N/A   Clear
3:53 AM 73.0 °F - 70.0 °F 90% 29.90 in 7.0 mi ESE 4.6 mph - N/A   Clear
4:53 AM 73.0 °F - 70.0 °F 90% 29.89 in 6.0 mi South 3.5 mph - N/A   Clear
5:53 AM 72.0 °F - 69.1 °F 91% 29.88 in 4.0 mi SE 5.8 mph - 0.00 in   Clear
6:53 AM 72.0 °F - 70.0 °F 93% 29.91 in 2.5 mi Calm Calm - N/A   Clear
7:01 AM 73.0 °F - 71.1 °F 93% 29.94 in 3.0 mi Calm Calm - N/A   Clear
7:53 AM 75.0 °F - 72.0 °F 90% 29.91 in 5.0 mi Calm Calm - N/A   Partly Cloudy
8:53 AM 75.9 °F - 71.1 °F 85% 29.97 in 7.0 mi North 20.7 mph 31.1 mph N/A   Mostly Cloudy
9:10 AM 73.9 °F - 62.1 °F 66% 29.99 in 10.0 mi NNE 17.3 mph 33.4 mph N/A Thunderstorm Mostly Cloudy
9:40 AM 75.0 °F - 62.1 °F 64% 29.95 in 10.0 mi East 10.4 mph - N/A   Clear
9:53 AM 75.0 °F - 63.0 °F 66% 29.92 in 10.0 mi ENE 6.9 mph - N/A   Clear
10:53 AM 84.9 °F 90.1 °F 71.1 °F 63% 29.93 in 10.0 mi SSE 15.0 mph - N/A   Clear
11:53 AM 86.0 °F 90.7 °F 70.0 °F 59% 29.94 in 10.0 mi North - - N/A   Clear
12:53 PM 88.0 °F 91.4 °F 68.0 °F 51% 29.94 in 10.0 mi South 10.4 mph - N/A   Clear
1:53 PM 90.0 °F 93.6 °F 68.0 °F 48% 29.94 in 10.0 mi SSW 6.9 mph - N/A   Clear
2:53 PM 91.9 °F 94.5 °F 66.0 °F 42% 29.93 in 10.0 mi South 6.9 mph - N/A   Clear
3:53 PM 93.9 °F 97.0 °F 66.0 °F 40% 29.93 in 10.0 mi South 5.8 mph - N/A   Clear
4:53 PM 93.9 °F 97.5 °F 66.9 °F 41% 29.92 in 10.0 mi South 9.2 mph - N/A   Clear
5:53 PM 93.0 °F 96.4 °F 66.9 °F 42% 29.89 in 10.0 mi South 11.5 mph - N/A   Clear
6:53 PM 90.0 °F 92.4 °F 66.0 °F 45% 29.93 in 10.0 mi SE 5.8 mph - N/A   Clear
7:53 PM 80.1 °F 82.3 °F 66.9 °F 64% 29.97 in 10.0 mi NE 13.8 mph - N/A   Scattered Clouds
8:53 PM 77.0 °F - 66.9 °F 71% 29.96 in 10.0 mi East 9.2 mph - N/A   Clear
9:53 PM 75.0 °F - 66.9 °F 76% 29.96 in 10.0 mi ESE 9.2 mph - 0.00 in   Clear
10:53 PM 75.9 °F - 68.0 °F 76% 29.95 in 10.0 mi SE 6.9 mph - N/A   Clear
11:53 PM 77.0 °F - 69.1 °F 76% 29.95 in 10.0 mi SE 9.2 mph - N/A   Clear